This is the latest recevied weather packets stored in our database for station/object KE8WMS. If no packets are shown the sender has not sent any weather packets the latest 1 day(s).
| Time | Temp. | Humidity | Pressure | Rain* | Wind** | Luminosity | Snow |
|---|---|---|---|---|---|---|---|
| 1778046715 | 7.78° C | 99% | 1005.3 hPa | 0 mm | 0 m/s | 0 W/m² | - |
| 1778046412 | 7.78° C | 99% | 1005.1 hPa | 0 mm | 0 m/s | 0 W/m² | - |
| 1778046107 | 7.78° C | 99% | 1005.1 hPa | 0 mm | 0 m/s | 0 W/m² | - |
| 1778045805 | 7.78° C | 99% | 1005.1 hPa | 1.78 mm | 0 m/s | 0 W/m² | - |
| 1778045504 | 7.78° C | 99% | 1005.2 hPa | 1.78 mm | 0 m/s | 0 W/m² | - |
| 1778045202 | 7.78° C | 99% | 1005.1 hPa | 0 mm | 0 m/s | 0 W/m² | - |
| 1778044900 | 7.78° C | 99% | 1005 hPa | 0 mm | 0 m/s | 0 W/m² | - |
| 1778044597 | 7.78° C | 99% | 1005 hPa | 1.78 mm | 0 m/s | 0 W/m² | - |
| 1778044293 | 7.78° C | 99% | 1005.1 hPa | 1.78 mm | 0 m/s | 0 W/m² | - |
| 1778043991 | 7.78° C | 99% | 1005.2 hPa | 0 mm | 0 m/s | 0 W/m² | - |
| 1778043688 | 7.78° C | 99% | 1005.1 hPa | 1.27 mm | 0 m/s | 0 W/m² | - |
| 1778043385 | 7.78° C | 99% | 1004.9 hPa | 1.27 mm | 0 m/s | 0 W/m² | - |
| 1778043081 | 7.78° C | 99% | 1005.1 hPa | 1.27 mm | 0 m/s | 0 W/m² | - |
| 1778042779 | 7.78° C | 99% | 1005.4 hPa | 0 mm | 0 m/s | 0 W/m² | - |
| 1778042476 | 7.78° C | 99% | 1005.4 hPa | 1.78 mm | 0 m/s | 0 W/m² | - |
| 1778042173 | 7.78° C | 99% | 1005.4 hPa | 1.78 mm | 0 m/s | 0 W/m² | - |
| 1778041871 | 7.78° C | 99% | 1005.4 hPa | 0 mm | 0 m/s | 0 W/m² | - |
| 1778041570 | 7.78° C | 99% | 1005.5 hPa | 0 mm | 0 m/s | 0 W/m² | - |
| 1778041268 | 7.78° C | 99% | 1005.3 hPa | 0 mm | 0 m/s | 0 W/m² | - |
| 1778040966 | 8.33° C | 99% | 1005.3 hPa | 1.27 mm | 0 m/s | 0 W/m² | - |
| 1778040662 | 7.78° C | 99% | 1005.6 hPa | 1.27 mm | 0 m/s | 0 W/m² | - |
| 1778040360 | 7.78° C | 99% | 1005.8 hPa | 0 mm | 0 m/s | 0 W/m² | - |
| 1778040056 | 7.78° C | 99% | 1005.6 hPa | 1.78 mm | 0.45 m/s, 224° | 0 W/m² | - |
| 1778039753 | 7.78° C | 99% | 1005.7 hPa | 1.78 mm | 0 m/s | 0 W/m² | - |
| 1778039450 | 7.78° C | 99% | 1005.9 hPa | 1.27 mm | 0 m/s | 0 W/m² | - |
* Rain latest hour (hover to see other rain measurements)
** Current wind speed in m/s (hover to see current wind gust speed)